GW6334 Weather Reports


Display with metric or nautical units.
time (UTC)temp
F
wind
direction
speed
MPH
gust
MPH
rain 1hr
in
rain 24hr
in
rain mn
in
humidity
%
barometer
mb
20260505014533 58 202 0.0 6.0 0.00 0.00 0.00 52 1010.6
20260505013007 59 176 0.0 3.0 0.00 0.00 0.00 51 1010.4
20260505011512 60 196 0.0 6.0 0.00 0.00 0.00 50 1010.1
20260505010016 60 192 1.0 6.0 0.00 0.00 0.00 49 1009.8
20260505004529 61 148 2.0 5.0 0.00 0.00 0.00 48 1009.5
20260505003047 61 244 1.0 6.0 0.00 0.00 0.00 47 1009.1
20260505001507 62 192 1.0 7.0 0.00 0.00 0.00 47 1008.7
20260505000031 63 194 2.0 5.0 0.00 0.00 0.00 45 1008.5
20260504234518 64 180 1.0 7.0 0.00 0.00 0.00 43 1008.1
20260504233024 65 178 4.0 9.0 0.00 0.00 0.00 41 1007.8
20260504231527 65 160 2.0 11.0 0.00 0.00 0.00 40 1007.6
20260504230027 67 206 2.0 8.0 0.00 0.00 0.00 38 1007.2
20260504224519 69 205 1.0 6.0 0.00 0.00 0.00 33 1006.8
20260504223020 69 183 3.0 7.0 0.00 0.00 0.00 31 1006.7
20260504221526 70 200 1.0 8.0 0.00 0.00 0.00 31 1006.8
20260504220026 70 190 2.0 7.0 0.00 0.00 0.00 31 1006.9
20260504214517 71 177 4.0 9.0 0.00 0.00 0.00 29 1006.8
20260504213026 71 205 2.0 6.0 0.00 0.00 0.00 30 1006.9
20260504211534 71 200 3.0 9.0 0.00 0.00 0.00 30 1006.9
20260504210028 71 204 2.0 7.0 0.00 0.00 0.00 31 1007.0
20260504204515 71 155 2.0 7.0 0.00 0.00 0.00 30 1006.9
20260504203021 70 180 2.0 8.0 0.00 0.00 0.00 29 1007.1
20260504201520 70 167 1.0 8.0 0.00 0.00 0.00 29 1007.0
20260504200026 71 216 3.0 11.0 0.00 0.00 0.00 27 1007.1
20260504194527 72 167 3.0 7.0 0.00 0.00 0.00 27 1007.2
20260504193027 73 139 3.0 7.0 0.00 0.00 0.00 26 1007.2
20260504191522 72 191 2.0 10.0 0.00 0.00 0.00 30 1007.1
20260504190024 72 217 3.0 15.0 0.00 0.00 0.00 27 1007.2
20260504184542 72 150 2.0 7.0 0.00 0.00 0.00 28 1007.4
20260504183027 71 219 3.0 11.0 0.00 0.00 0.00 29 1007.5
20260504181518 71 160 5.0 10.0 0.00 0.00 0.00 28 1007.6
20260504180024 70 291 2.0 12.0 0.00 0.00 0.00 30 1007.5
20260504174524 70 345 4.0 11.0 0.00 0.00 0.00 29 1007.6
20260504173028 69 160 4.0 16.0 0.00 0.00 0.00 30 1007.9
20260504171525 69 210 3.0 14.0 0.00 0.00 0.00 29 1008.0
20260504081520 43 146 0.0 0.0 0.00 0.02 0.00 64 1010.7
20260504050024 40 124 0.0 2.0 0.00 0.02 0.00 62 1010.5
20260504044506 39 124 0.0 2.0 0.00 0.02 0.00 65 1010.7
20260504043006 39 153 0.0 1.0 0.00 0.02 0.00 65 1010.4
20260504041532 39 153 0.0 1.0 0.00 0.02 0.00 64 1010.4
20260504040025 39 153 0.0 1.0 0.00 0.02 0.00 65 1010.3
20260504034520 40 153 0.0 1.0 0.00 0.02 0.02 62 1010.1
20260504033003 40 153 0.0 1.0 0.00 0.02 0.02 62 1010.0
20260504031507 40 153 0.0 1.0 0.00 0.02 0.02 62 1010.1
20260504030013 41 158 0.0 1.0 0.00 0.02 0.02 61 1010.2
20260504024520 41 158 0.0 1.0 0.00 0.02 0.02 59 1010.1
20260504023019 42 158 0.0 1.0 0.00 0.02 0.02 57 1010.1
20260504021503 42 158 0.0 0.0 0.00 0.02 0.02 55 1010.0
20260504020012 43 158 0.0 0.0 0.00 0.02 0.02 56 1009.9